Location: Góry Miechowskie
(50.3599°N, 20.1803°E)
Time: 15:27:45
(UTC+00:00)

A-11 Canister half - Pass Details

Date: 16 September 2024
Orbit: 1515 x 1684 km, 47.2° (Epoch: 07 October)

Event Time Altitude Azimuth Distance (km) Brightness Sun altitude
Rises 22:13:34 0° 284° (WNW) 4,671 11.8 -37.3°
Reaches altitude 10° 22:16:43 10° 280° (W) 3,681 11.1 -37.3°
Enters shadow 22:20:55 29° 265° (W) 2,500 10.0 -37.4°
Maximum altitude 22:25:27 49° 209° (SSW) 1,879 - -37.4°
Drops below altitude 10° 22:34:15 10° 138° (SE) 3,705 - -37.5°
Sets 22:37:26 0° 133° (SE) 4,704 - -37.5°
